Location: Mountain View
(42.7042°N, 73.6523°W)
Time: 15:24:12
(UTC+00:00)

Daily predictions for brighter satellites

Satellite Brightness Start Highest point End
(mag) Time Altitude Azimuth Time Altitude Azimuth Time Altitude Azimuth
Cosmos 1726 Rocket 4.4 22:15:30 10° NNE 22:19:19 28° ENE 22:23:07 10° SE
CZ-4C R/B 3.3 22:17:05 10° N 22:20:11 61° WNW 22:23:18 10° SSW
Cosmos 773 Rocket 4.4 22:16:43 10° N 22:21:36 40° ENE 22:26:25 10° SE
ATLAS 5 CENTAUR R/B 1.6 22:19:17 10° SW 22:23:13 75° NW 22:27:39 10° NNE
Meteor 2-5 Rocket 3.7 22:19:38 10° S 22:25:12 72° E 22:30:43 10° NNE
BREEZE-M DEB (TANK) 3.6 22:25:00 10° WNW 22:27:11 21° NNW 22:28:59 10° NE
Cosmos 1455 4.1 22:26:58 10° NE 22:28:09 11° ENE 22:29:19 10° E
Aureole 2 Rocket 4.1 22:28:13 10° ESE 22:29:27 12° E 22:30:42 10° ENE
NOAA 12 4.3 22:25:22 10° S 22:30:35 78° WSW 22:35:52 10° NNW
Cosmos 1300 2.7 22:28:25 10° N 22:32:13 60° E 22:35:58 10° SSE
Cosmos 1939 Rocket 3.2 22:29:28 10° SE 22:33:25 46° ENE 22:37:21 10° N
ATLAS 2AS CENTAUR R/B 4.0 22:26:38 10° WSW 22:34:07 44° NW 22:41:32 10° NNE
COSMO-SKYMED 1 3.1 22:32:57 10° NNE 22:37:03 39° E 22:41:07 10° SSE
SMAP 3.6 22:32:33 10° S 22:37:09 66° WSW 22:41:48 10° NNW
Cosmos 2263 Rocket 2.7 22:36:17 10° SW 22:41:55 64° WNW 22:47:35 10° NNE
Okean-O 3.7 22:38:30 10° ESE 22:41:59 23° ENE 22:45:28 10° NNE
CORIOLIS 4.4 22:36:38 10° S 22:42:02 75° WSW 22:47:27 10° NNW
CZ-4 R/B 2.4 22:40:50 10° ESE 22:44:11 24° ENE 22:47:30 10° NNE
NOAA 11 4.4 22:39:02 10° S 22:44:32 79° WSW 22:50:04 10° NNW
TELKOM 3 3.8 22:43:28 10° SSW 22:45:38 36° SE 22:47:08 18° E
Okean O Rocket 2.0 22:41:44 10° S 22:46:09 70° WSW 22:50:36 10° NNW
Cosmos 1315 Rocket 2.9 22:44:56 10° NNW 22:48:54 83° W 22:52:55 10° S
ERS-2 2.9 22:47:38 10° NE 22:50:55 31° E 22:54:10 10° SSE
Cosmos 1538 Rocket 4.3 22:47:49 10° N 22:52:46 43° ENE 22:57:40 10° SE
COSMOS 2455 2.9 22:47:04 10° SSW 22:52:57 59° ESE 22:58:53 10° NE
H-2A R/B 4.2 22:49:34 10° SSW 22:53:13 35° W 22:57:01 10° NNW
Cosmos 2279 Rocket 4.0 22:47:56 10° N 22:54:14 79° E 23:00:29 10° S
Cosmos 1777 Rocket 4.0 22:50:58 10° S 22:56:11 74° ESE 23:01:28 10° NNE
MOS 1 Rocket 3.3 22:52:22 10° NNE 22:56:33 47° E 23:00:39 10° S
ARGOS 4.0 22:55:37 10° ESE 22:59:58 26° ENE 23:04:20 10° N
SKYMED 3 4.5 22:56:45 10° NNE 23:01:06 73° ESE 23:05:25 10° S
Meteor 1-24 Rocket 3.9 22:57:13 10° SSW 23:02:34 70° W 23:07:52 10° N
USA 234 4.4 22:59:32 15° ENE 23:03:41 27° N 23:09:00 10° NW
Cosmos 1943 3.8 22:58:52 10° NNW 23:04:27 60° WSW 23:09:58 10° S
X-37B 1.8 23:01:42 10° SSW 23:04:33 30° SSE 23:05:49 22° ESE
Feng Yun 1-1 Rocket 4.2 23:02:36 10° SSE 23:08:01 87° ENE 23:13:33 10° NNW
ISS -3.1 23:05:01 10° SSW 23:08:11 40° SE 23:09:26 28° E
YAOGAN 1 3.0 23:04:45 10° SE 23:08:45 39° ENE 23:12:48 10° N
Cosmos 1892 Rocket 3.5 23:05:15 10° S 23:09:35 88° E 23:13:57 10° N
Cosmos 1606 Rocket 4.1 23:05:35 10° NNW 23:09:55 63° W 23:14:16 10° S
CZ-2C R/B 3.8 23:09:25 20° ENE 23:10:44 22° E 23:14:59 10° SE
H-2A R/B 3.8 23:06:59 10° N 23:10:58 33° WNW 23:14:53 10° SW
Cosmos 1844 4.2 23:06:59 10° S 23:12:09 39° ESE 23:15:46 19° NE
ATLAS 3B R/B 4.2 23:11:48 10° NW 23:18:17 41° WSW 23:25:00 10° S
IRS-1C Rocket 4.0 23:18:02 10° SSE 23:23:17 89° ENE 23:28:35 10° NNW
Helios 1A Rocket 3.1 23:20:48 10° SE 23:24:45 46° ENE 23:28:44 10° N
SKYMED 2 4.1 23:20:50 10° N 23:25:08 61° WNW 23:29:23 10° SSW
CZ-2D R/B 3.7 23:22:40 10° S 23:26:30 63° W 23:30:20 10° NNW
SJ 16-02 1.3 23:24:53 10° S 23:29:13 62° ESE 23:31:28 27° NNE
Meteor 1-21 Rocket 4.2 23:25:17 10° S 23:30:41 58° E 23:36:07 10° NNE
Lacrosse 5 2.2 23:26:59 10° NW 23:31:50 44° NE 23:33:13 36° ENE
Cosmos 1092 Rocket 4.1 23:27:15 10° SSE 23:33:11 50° E 23:39:06 10° NNE
CZ-4B R/B 3.4 23:32:54 10° N 23:35:53 28° WNW 23:38:46 10° SW
Cosmos 1844 Rocket 2.6 23:30:57 10° SSW 23:36:36 78° ESE 23:40:35 20° NNE
Cosmos 44 4.1 23:33:12 10° S 23:36:59 31° ESE 23:36:59 31° ESE
OE (NEXTSAT) 4.4 23:35:42 10° W 23:39:06 60° NNW 23:39:21 57° N
Cosmos 2058 Rocket 3.6 23:35:14 10° NNW 23:39:41 63° W 23:44:08 10° S
SAR-Lupe-4 3.7 23:39:40 24° N 23:41:40 74° WNW 23:45:13 10° SSW
CZ-2C R/B 3.7 23:36:37 10° S 23:41:45 61° W 23:47:14 10° NNW
DMSP B5D1-3 4.4 23:37:33 14° NNE 23:42:00 67° ESE 23:47:03 10° S
CZ-4C R/B 4.5 23:41:52 10° WNW 23:45:14 16° NNW 23:48:55 10° NNE
Okean 1-7 Rocket 4.3 23:43:42 10° SSW 23:48:09 55° WNW 23:52:38 10° N
H-2A R/B 1.9 23:44:03 10° SSE 23:48:59 87° WSW 23:54:06 10° NNW
NOSS 3-1 (C) 4.4 23:43:26 10° NNW 23:50:23 42° NE 23:52:32 36° ENE
Nadezhda 4 Rocket 4.2 23:45:08 10° SSW 23:51:24 73° W 23:57:37 10° N
Cosmos 923 Rocket 3.9 23:49:16 10° NNW 23:54:36 67° ENE 23:56:48 35° SE
